Location: Newark
(40.7360°N, 74.1730°W)
Time: 14:49:47
(UTC-04:00)

Amateur Radio Satellites - All Passes

Search period start: 04 September 2015 14:19
Search period end: 05 September 2015 14:19
Location: Newark, 40.7360°N, 74.1730°W

Satellite Date Start Highest point End Downlink Frequencies (MHz)
Time Altitude Azimuth
BEESAT 2 04 Sep 14:29:59 14:34:04 78° 121° (ESE) 14:38:12 435.950
ISS 04 Sep 14:30:28 14:33:42 63° 220° (SW) 14:36:54 145.825
SPROUT 04 Sep 14:32:50 14:35:32 16° 294° (WNW) 14:38:04 437.525
JAS-2 04 Sep 14:46:31 14:54:11 67° 72° (ENE) 15:01:58 435.910
BEESAT 04 Sep 14:48:54 14:53:41 72° 102° (ESE) 14:58:25 436.000
KKS-1 04 Sep 14:56:11 14:58:12 13° 89° (E) 15:00:28 437.445
AO-7 04 Sep 15:04:19 15:12:03 46° 63° (ENE) 15:19:52 29.400- 29.500
HORYU 2 04 Sep 15:05:31 15:08:43 20° 66° (ENE) 15:12:02 437.375
ITAMSAT 1 04 Sep 15:09:14 15:14:14 48° 261° (W) 15:19:14 435.822/435.867
Gurwin Techsat 1B 04 Sep 15:15:19 15:20:11 35° 264° (W) 15:25:02 435.225
SWISSCUBE 04 Sep 15:15:35 15:20:16 56° 287° (WNW) 15:24:54 437.505
AIST 2 04 Sep 15:34:09 15:38:22 72° 120° (ESE) 15:42:37 435.215
Cosmos 2499 04 Sep 15:39:10 15:47:49 88° 263° (W) 15:55:47 435.465 / 435.565
GONETS M04 04 Sep 15:42:17 15:49:16 26° 277° (W) 15:55:57
BEESAT 3 04 Sep 15:51:50 15:54:16 15° 319° (NW) 15:56:36 437.485
ITUPSAT 1 04 Sep 15:56:47 16:00:44 25° 292° (WNW) 16:04:34 437.325
RS-15 04 Sep 15:59:15 16:10:06 78° 119° (ESE) 16:21:27 29.354- 29.394
STARS 04 Sep 16:01:51 16:06:03 40° 98° (E) 16:10:13 437.465
BEESAT 2 04 Sep 16:10:30 16:12:40 14° 320° (NW) 16:14:42 435.950
BEESAT 04 Sep 16:28:42 16:30:59 13° 297° (WNW) 16:33:03 436.000
KKS-1 04 Sep 16:30:51 16:35:17 57° 286° (WNW) 16:39:40 437.445
JAS-2 04 Sep 16:33:23 16:39:47 26° 271° (W) 16:46:00 435.910
HORYU 2 04 Sep 16:40:51 16:45:06 40° 262° (W) 16:49:20 437.375
AO-7 04 Sep 16:57:08 17:04:56 41° 262° (W) 17:12:40 29.400- 29.500
MOZHAYETS 4 04 Sep 17:12:58 17:17:29 60° 100° (E) 17:21:58
AIST 2 04 Sep 17:14:55 17:17:27 15° 319° (NW) 17:19:53 435.215
Cubesat XI-IV 04 Sep 17:20:56 17:24:59 23° 65° (ENE) 17:29:09 437.490
Cosmos 2499 04 Sep 17:34:46 17:39:45 16° 282° (WNW) 17:44:05 435.465 / 435.565
STARS 04 Sep 17:38:59 17:42:14 19° 294° (WNW) 17:45:20 437.465
O/OREOS (USA 219) 04 Sep 17:41:26 17:44:54 23° 103° (ESE) 17:48:31 437.305
CUBESAT XI-V 04 Sep 17:44:16 17:44:59 10° 87° (E) 17:46:02 437.345
Cosmos 2491 04 Sep 18:01:36 18:04:54 13° 55° (NE) 18:08:51 435.465 / 435.565
CUTE-I 04 Sep 18:03:17 18:08:26 54° 72° (ENE) 18:13:37 437.470
RS-15 04 Sep 18:13:47 18:23:48 36° 325° (NW) 18:34:05 29.354- 29.394
AIST 1 04 Sep 18:31:22 18:35:18 33° 76° (ENE) 18:39:17
MOZHAYETS 4 04 Sep 18:51:46 18:54:16 14° 296° (WNW) 18:56:34
BRITE-PL 04 Sep 18:56:21 19:00:07 27° 68° (ENE) 19:04:14 437.365/2234.400
DOVE 4 04 Sep 18:59:05 19:00:26 11° 60° (ENE) 19:02:05 437.250
Cubesat XI-IV 04 Sep 18:59:43 19:04:49 46° 261° (W) 19:09:56 437.490
GOMX 1 04 Sep 19:04:03 19:07:25 20° 65° (ENE) 19:11:05 467.674
STRAND 1 04 Sep 19:13:08 19:17:13 24° 94° (E) 19:21:23 437.568
CUBESAT XI-V 04 Sep 19:18:24 19:23:03 75° 285° (WNW) 19:27:42 437.345
O/OREOS (USA 219) 04 Sep 19:19:59 19:24:10 35° 299° (WNW) 19:28:21 437.305
HO-68 04 Sep 19:29:39 19:35:43 32° 63° (ENE) 19:41:56 435.675
PRISM 04 Sep 19:30:37 19:33:47 22° 94° (E) 19:37:02 437.425
CUTE 1.7 + AOD 2 04 Sep 19:37:10 19:39:44 16° 67° (ENE) 19:42:28 437.475
CUTE-I 04 Sep 19:45:11 19:48:55 18° 269° (W) 19:52:27 437.470
CANX-2 04 Sep 19:50:52 19:54:20 25° 69° (ENE) 19:57:52 2200.000
Cosmos 2491 04 Sep 19:55:14 20:03:57 67° 79° (ENE) 20:12:42 435.465 / 435.565
YUBILEINY 04 Sep 20:01:33 20:08:53 32° 85° (E) 20:16:29 435.215
SEEDS 04 Sep 20:04:33 20:07:59 25° 70° (ENE) 20:11:29 437.485
AIST 1 04 Sep 20:09:34 20:12:45 19° 271° (W) 20:15:49
CUBEBUG 2 04 Sep 20:11:19 20:12:57 12° 63° (ENE) 20:14:50 437.445
COMPASS 1 04 Sep 20:19:01 20:22:34 28° 70° (ENE) 20:26:11 437.405
AAUSAT CUBESAT 2 04 Sep 20:25:23 20:28:54 27° 70° (ENE) 20:32:28 437.432
DOVE 4 04 Sep 20:32:42 20:37:25 88° 257° (WSW) 20:42:28 437.250
RS-15 04 Sep 20:32:58 20:40:57 21° 359° (N) 20:49:11 29.354- 29.394
BRITE-PL 04 Sep 20:34:41 20:38:36 29° 267° (W) 20:42:45 437.365/2234.400
Oscar 11 04 Sep 20:34:41 20:37:22 17° 66° (ENE) 20:40:12 145.826/435.025
GOMX 1 04 Sep 20:40:48 20:45:13 44° 264° (W) 20:49:56 467.674
CINEMA 3 04 Sep 20:46:29 20:51:09 57° 73° (ENE) 20:56:02 145.822/145.860
STRAND 1 04 Sep 20:51:48 20:56:34 39° 290° (WNW) 21:01:17 437.568
PRISM 04 Sep 21:05:38 21:09:15 29° 290° (WNW) 21:12:49 437.425
CUTE 1.7 + AOD 2 04 Sep 21:11:12 21:15:19 45° 262° (W) 21:19:26 437.475
HO-68 04 Sep 21:16:14 21:23:12 51° 260° (W) 21:30:10 435.675
ZACube-1 04 Sep 21:25:40 21:29:53 38° 71° (ENE) 21:34:11 437.345
CANX-2 04 Sep 21:26:27 21:30:10 28° 265° (W) 21:33:50 2200.000
FUNcube-1 04 Sep 21:28:57 21:33:12 40° 72° (ENE) 21:37:32 145.935
HUMSAT D 04 Sep 21:35:32 21:38:33 19° 67° (ENE) 21:41:41 437.325/437.525
SEEDS 04 Sep 21:40:02 21:43:41 27° 265° (W) 21:47:18 437.485
UWE-3 04 Sep 21:42:02 21:46:40 77° 75° (ENE) 21:51:23 435.000/436.395/437.385
CUBEBUG 2 04 Sep 21:44:19 21:49:00 80° 258° (WSW) 21:53:48 437.445
DELFI C3 04 Sep 21:52:45 21:56:47 76° 76° (ENE) 22:00:49 145.870
Cosmos 2491 04 Sep 21:53:16 22:00:11 26° 277° (W) 22:06:48 435.465 / 435.565
COMPASS 1 04 Sep 21:54:46 21:58:14 24° 266° (W) 22:01:37 437.405
YUBILEINY 04 Sep 21:56:45 22:05:21 55° 284° (WNW) 22:13:58 435.215
AAUSAT CUBESAT 2 04 Sep 22:01:01 22:04:29 24° 266° (W) 22:07:51 437.432
50 SAT 04 Sep 22:02:05 22:04:09 14° 67° (ENE) 22:06:22 437.505
Oscar 11 04 Sep 22:09:03 22:13:14 45° 262° (W) 22:17:25 145.826/435.025
DX 1 04 Sep 22:09:12 22:12:44 26° 68° (ENE) 22:16:22 434.975-435.025
UKube-1 04 Sep 22:14:43 22:18:17 26° 68° (ENE) 22:21:54 .
ANTELSAT 04 Sep 22:22:25 22:24:31 13° 88° (E) 22:26:51 437.575/2403.000
CINEMA 3 04 Sep 22:25:55 22:28:49 15° 272° (W) 22:31:35 145.822/145.860
BEESAT 3 04 Sep 22:30:37 22:34:22 36° 51° (NE) 22:38:04 437.485
CUBEBUG 1 04 Sep 22:36:34 22:39:35 19° 67° (ENE) 22:42:46 437.445
Cosmos 2504 04 Sep 22:41:02 22:48:42 47° 89° (E) 22:56:50 435.465 / 435.565
RS-15 04 Sep 22:48:17 22:58:25 33° 32° (NNE) 23:09:07 29.354- 29.394
AISAT 04 Sep 22:48:37 22:52:47 44° 72° (ENE) 22:57:02 437.250
BEESAT 2 04 Sep 22:49:19 22:53:12 42° 52° (NE) 22:57:01 435.950
ESTCUBE 1 04 Sep 22:52:04 22:56:06 35° 71° (ENE) 23:00:12 437.505/2401.250
M-CUBED/EXP-1 PRIME 04 Sep 22:55:15 22:56:51 13° 94° (E) 22:58:33 437.505
DANDE 04 Sep 22:59:26 23:00:00 10° 79° (E) 23:00:52 436.750
SO-50 04 Sep 23:01:26 23:03:20 13° 108° (ESE) 23:05:31 436.795
ZACube-1 04 Sep 23:02:55 23:06:23 20° 268° (W) 23:09:46 437.345
FUNcube-1 04 Sep 23:06:20 23:09:42 19° 269° (W) 23:12:58 145.935
HUMSAT D 04 Sep 23:09:58 23:14:01 38° 263° (W) 23:18:05 437.325/437.525
UNISAT 6 04 Sep 23:11:35 23:15:57 46° 98° (E) 23:20:13 437.425
VELOX 1 04 Sep 23:15:14 23:19:38 84° 76° (ENE) 23:24:05 145.980
UWE-3 04 Sep 23:22:50 23:23:50 10° 274° (W) 23:24:32 435.000/436.395/437.385
DUCHIFAT 1 04 Sep 23:26:16 23:29:34 22° 93° (E) 23:32:56 145.980
POLYITAN 1 04 Sep 23:29:00 23:32:33 25° 94° (E) 23:36:09 437.675
POPSAT HIP 1 04 Sep 23:29:46 23:33:18 25° 94° (E) 23:36:53 437.405
50 SAT 04 Sep 23:34:32 23:38:20 44° 261° (W) 23:42:08 437.505
CUSAT 1 04 Sep 23:36:46 23:40:53 53° 93° (E) 23:46:26 437.405
TIGRISAT 04 Sep 23:38:10 23:42:44 88° 95° (E) 23:47:09 435.000
NANOSAT C BR1 04 Sep 23:45:00 23:48:58 36° 97° (E) 23:52:55 145.865
DX 1 04 Sep 23:45:09 23:48:55 28° 264° (W) 23:52:39 434.975-435.025
QB50P2 04 Sep 23:47:33 23:51:38 41° 98° (E) 23:55:41 145.880/145.840
SPROUT 04 Sep 23:49:25 23:53:20 35° 71° (ENE) 23:57:18 437.525
UKube-1 04 Sep 23:50:39 23:54:20 27° 264° (W) 23:58:00 .
AIST 2 04 Sep 23:56:13 00:00:12 42° 52° (NE) 00:04:08 435.215
ANTELSAT 04 Sep 23:57:19 00:01:46 55° 286° (WNW) 00:06:04 437.575/2403.000
QB50P1 05 Sep 00:00:26 00:04:41 56° 100° (E) 00:08:53 145.935-145.965
BEESAT 3 05 Sep 00:09:04 00:12:04 20° 248° (WSW) 00:14:56 437.485
CUBEBUG 1 05 Sep 00:11:40 00:15:42 37° 263° (W) 00:19:46 437.445
AUBIESAT-1 05 Sep 00:18:23 00:22:10 66° 291° (WNW) 00:25:39 437.475
AISAT 05 Sep 00:26:44 00:29:38 17° 269° (W) 00:32:23 437.250
BEESAT 2 05 Sep 00:28:12 00:30:56 17° 248° (WSW) 00:33:30 435.950
M-CUBED/EXP-1 PRIME 05 Sep 00:28:23 00:32:01 40° 293° (WNW) 00:35:22 437.505
ESTCUBE 1 05 Sep 00:29:36 00:33:05 21° 267° (W) 00:36:28 437.505/2401.250
Cosmos 2504 05 Sep 00:33:26 00:41:06 38° 289° (WNW) 00:48:57 435.465 / 435.565
TISAT 1 05 Sep 00:35:04 00:39:14 66° 75° (ENE) 00:43:27 437.305
DANDE 05 Sep 00:38:14 00:42:00 57° 285° (WNW) 00:47:07 436.750
SO-50 05 Sep 00:38:29 00:43:17 77° 305° (NW) 00:48:14 436.795
SWISSCUBE 05 Sep 00:45:49 00:48:55 18° 65° (ENE) 00:52:10 437.505
BUGSAT 1 05 Sep 00:48:39 00:52:55 69° 284° (WNW) 00:57:09 437.445
UNISAT 6 05 Sep 00:49:22 00:52:23 17° 295° (WNW) 00:55:11 437.425
GONETS M04 05 Sep 00:54:08 00:57:37 14° 77° (ENE) 01:01:45
RS-15 05 Sep 01:00:47 01:12:44 89° 63° (ENE) 01:25:02 29.354- 29.394
DUCHIFAT 1 05 Sep 01:01:37 01:05:25 31° 290° (WNW) 01:09:10 145.980
POLYITAN 1 05 Sep 01:04:44 01:08:26 28° 290° (WNW) 01:12:02 437.675
POPSAT HIP 1 05 Sep 01:05:27 01:09:09 28° 290° (WNW) 01:12:46 437.405
PCSat 05 Sep 01:16:59 01:22:23 81° 119° (ESE) 01:27:51 145.827
CUSAT 1 05 Sep 01:21:06 01:24:17 17° 301° (WNW) 01:27:48 437.405
NANOSAT C BR1 05 Sep 01:21:25 01:24:33 20° 293° (WNW) 01:27:35 145.865
QB50P2 05 Sep 01:24:17 01:27:14 18° 293° (WNW) 01:30:02 145.880/145.840
ITUPSAT 1 05 Sep 01:25:09 01:29:32 38° 71° (ENE) 01:33:59 437.325
SPROUT 05 Sep 01:26:22 01:29:32 19° 268° (W) 01:32:37 437.525
AIST 2 05 Sep 01:35:35 01:38:28 18° 248° (WSW) 01:41:12 435.215
QB50P1 05 Sep 01:37:53 01:40:06 14° 295° (WNW) 01:42:08 145.935-145.965
Gurwin Techsat 1B 05 Sep 01:54:37 01:55:40 11° 86° (E) 01:57:06 435.225
KKS-1 05 Sep 01:54:46 01:56:40 13° 63° (ENE) 01:58:47 437.445
BEESAT 05 Sep 01:54:56 01:59:42 79° 74° (ENE) 02:04:29 436.000
VERMONT LUNAR 05 Sep 02:00:04 02:02:47 31° 158° (SSE) 02:05:31 437.305
Oscar 19 05 Sep 02:13:02 02:18:09 56° 100° (E) 02:23:15 437.125/150
TISAT 1 05 Sep 02:15:05 02:15:32 10° 272° (W) 02:15:41 437.305
SWISSCUBE 05 Sep 02:21:47 02:26:26 50° 261° (W) 02:31:04 437.505
SO-50 05 Sep 02:22:04 02:24:44 14° 324° (NW) 02:27:16 436.795
Cosmos 2499 05 Sep 02:26:00 02:30:00 15° 77° (ENE) 02:34:41 435.465 / 435.565
GONETS M04 05 Sep 02:44:31 02:53:09 77° 94° (E) 03:01:54
STARS 05 Sep 02:58:25 03:02:23 34° 70° (ENE) 03:06:27 437.465
PCSat 05 Sep 03:02:52 03:06:33 18° 318° (NW) 03:10:06 145.827
ITUPSAT 1 05 Sep 03:03:51 03:07:35 22° 267° (W) 03:11:13 437.325
AO-7 05 Sep 03:09:34 03:11:52 12° 84° (E) 03:14:56 29.400- 29.500
RS-15 05 Sep 03:14:59 03:24:02 24° 257° (WSW) 03:32:34 29.354- 29.394
ITAMSAT 1 05 Sep 03:22:02 03:27:11 62° 101° (E) 03:32:21 435.822/435.867
KKS-1 05 Sep 03:28:23 03:32:48 65° 258° (WSW) 03:37:16 437.445
Gurwin Techsat 1B 05 Sep 03:31:08 03:36:29 87° 290° (WNW) 03:41:49 435.225
VERMONT LUNAR 05 Sep 03:36:01 03:39:02 83° 170° (S) 03:42:00 437.305
BEESAT 05 Sep 03:37:29 03:38:13 10° 273° (W) 03:38:37 436.000
JAS-2 05 Sep 03:42:54 03:49:35 58° 99° (E) 03:55:26 435.910
O/OREOS (USA 219) 05 Sep 03:50:39 03:55:02 42° 63° (ENE) 03:59:23 437.305
Oscar 19 05 Sep 03:53:29 03:57:07 19° 296° (WNW) 04:00:34 437.125/150
PHONESAT 2.4 05 Sep 04:11:32 04:14:38 32° 157° (SSE) 04:17:45 2401.200-2431.200
Cosmos 2499 05 Sep 04:13:19 04:21:51 78° 95° (E) 04:30:46 435.465 / 435.565
MOZHAYETS 4 05 Sep 04:14:24 04:18:53 54° 74° (ENE) 04:23:23
HORYU 2 05 Sep 04:32:09 04:36:17 38° 98° (E) 04:40:25 437.375
STARS 05 Sep 04:35:30 04:38:56 21° 267° (W) 04:42:17 437.465
GONETS M04 05 Sep 04:44:26 04:51:07 23° 297° (WNW) 04:57:31
CUBESAT XI-V 05 Sep 04:47:56 04:49:01 11° 63° (ENE) 04:50:22 437.345
AO-7 05 Sep 04:58:06 05:06:24 70° 105° (ESE) 05:14:39 29.400- 29.500
ITAMSAT 1 05 Sep 05:02:51 05:06:15 17° 297° (WNW) 05:09:28 435.822/435.867
VERMONT LUNAR 05 Sep 05:12:25 05:15:23 70° 191° (S) 05:18:21 437.305
Gurwin Techsat 1B 05 Sep 05:13:41 05:15:46 12° 300° (WNW) 05:17:33 435.225
JAS-2 05 Sep 05:28:47 05:34:07 24° 299° (WNW) 05:38:49 435.910
O/OREOS (USA 219) 05 Sep 05:30:53 05:34:10 19° 258° (WSW) 05:37:16 437.305
PHONESAT 2.4 05 Sep 05:48:54 05:52:20 81° 171° (S) 05:55:45 2401.200-2431.200
MOZHAYETS 4 05 Sep 05:53:52 05:56:30 14° 271° (W) 05:58:55
Cosmos 2499 05 Sep 06:09:17 06:16:08 24° 297° (WNW) 06:22:48 435.465 / 435.565
HORYU 2 05 Sep 06:09:22 06:12:42 20° 293° (WNW) 06:15:54 437.375
YUBILEINY 05 Sep 06:12:37 06:17:05 15° 57° (ENE) 06:22:06 435.215
PRISM 05 Sep 06:21:07 06:23:36 16° 66° (ENE) 06:26:13 437.425
CUBESAT XI-V 05 Sep 06:21:17 06:25:52 80° 258° (WSW) 06:30:29 437.345
CUTE-I 05 Sep 06:21:18 06:25:18 22° 92° (E) 06:29:27 437.470
STRAND 1 05 Sep 06:28:41 06:33:13 34° 69° (ENE) 06:37:49 437.568
VERMONT LUNAR 05 Sep 06:49:09 06:51:31 21° 206° (SSW) 06:53:50 437.305
AO-7 05 Sep 06:51:51 06:58:36 28° 303° (WNW) 07:05:09 29.400- 29.500
AIST 1 05 Sep 07:01:21 07:04:23 20° 89° (E) 07:07:33
BRITE-PL 05 Sep 07:02:34 07:04:23 12° 85° (E) 07:06:34 437.365/2234.400
Cosmos 2491 05 Sep 07:05:08 07:08:39 14° 77° (ENE) 07:12:50 435.465 / 435.565
ISS 05 Sep 07:09:11 07:12:18 43° 138° (SE) 07:15:24 145.825
Cubesat XI-IV 05 Sep 07:16:53 07:22:13 73° 102° (ESE) 07:27:33 437.490
PHONESAT 2.4 05 Sep 07:26:47 07:30:12 75° 188° (S) 07:33:35 2401.200-2431.200
SO-50 05 Sep 07:31:07 07:34:02 16° 37° (NE) 07:37:03 436.795
PRISM 05 Sep 07:54:52 07:58:45 40° 261° (W) 08:02:37 437.425
CUTE-I 05 Sep 08:00:34 08:05:39 46° 289° (WNW) 08:10:43 437.470
YUBILEINY 05 Sep 08:06:59 08:15:51 76° 81° (E) 08:24:38 435.215
STRAND 1 05 Sep 08:08:07 08:12:29 28° 265° (W) 08:16:46 437.568
PCSat 05 Sep 08:24:06 08:25:55 12° 36° (NE) 08:27:58 145.827
Cosmos 2504 05 Sep 08:30:05 08:34:02 14° 56° (ENE) 08:38:26 435.465 / 435.565
DOVE 4 05 Sep 08:32:23 08:36:58 30° 93° (E) 08:41:31 437.250
CUSAT 1 05 Sep 08:32:54 08:34:51 11° 54° (NE) 08:37:25 437.405
BRITE-PL 05 Sep 08:38:02 08:43:41 89° 102° (ESE) 08:49:24 437.365/2234.400
AIST 1 05 Sep 08:38:03 08:41:51 31° 285° (WNW) 08:45:39
GOMX 1 05 Sep 08:42:10 08:47:38 60° 99° (E) 08:53:01 467.674
CINEMA 3 05 Sep 08:43:19 08:46:04 15° 88° (E) 08:48:59 145.822/145.860
HO-68 05 Sep 08:44:20 08:50:36 32° 95° (E) 08:56:57 435.675
ISS 05 Sep 08:45:59 08:48:48 26° 335° (NNW) 08:51:38 145.825
Cosmos 2491 05 Sep 08:55:34 09:04:14 77° 95° (E) 09:12:57 435.465 / 435.565
CUTE 1.7 + AOD 2 05 Sep 08:56:46 09:00:28 29° 95° (E) 09:04:10 437.475
Cubesat XI-IV 05 Sep 08:58:38 09:01:47 16° 298° (WNW) 09:04:43 437.490
PHONESAT 2.4 05 Sep 09:04:53 09:07:49 26° 206° (SSW) 09:10:42 2401.200-2431.200
SO-50 05 Sep 09:10:23 09:15:22 88° 58° (ENE) 09:20:11 436.795
CANX-2 05 Sep 09:11:18 09:15:24 49° 99° (E) 09:19:28 2200.000
ANTELSAT 05 Sep 09:21:22 09:23:40 14° 64° (ENE) 09:26:10 437.575/2403.000
SEEDS 05 Sep 09:23:50 09:27:54 47° 99° (E) 09:31:55 437.485
AUBIESAT-1 05 Sep 09:31:43 09:34:34 17° 61° (ENE) 09:37:33 437.475
UWE-3 05 Sep 09:33:47 09:36:29 16° 89° (E) 09:39:19 435.000/436.395/437.385
DANDE 05 Sep 09:33:53 09:39:47 23° 64° (ENE) 09:46:21 436.750
CUBEBUG 2 05 Sep 09:36:40 09:40:16 23° 92° (E) 09:43:52 437.445
COMPASS 1 05 Sep 09:37:23 09:41:27 53° 99° (E) 09:45:30 437.405
M-CUBED/EXP-1 PRIME 05 Sep 09:40:59 09:44:44 24° 63° (ENE) 09:48:29 437.505
AAUSAT CUBESAT 2 05 Sep 09:43:09 09:47:11 51° 99° (E) 09:51:13 437.432
Oscar 11 05 Sep 09:56:42 10:00:32 31° 96° (E) 10:04:24 145.826/435.025
PCSat 05 Sep 10:05:12 10:10:35 60° 57° (ENE) 10:15:57 145.827
YUBILEINY 05 Sep 10:05:22 10:11:51 22° 279° (W) 10:17:55 435.215
UNISAT 6 05 Sep 10:09:49 10:14:12 41° 72° (ENE) 10:18:40 437.425
DOVE 4 05 Sep 10:09:54 10:14:43 35° 290° (WNW) 10:19:23 437.250
CUSAT 1 05 Sep 10:11:30 10:19:21 54° 74° (ENE) 10:27:17 437.405
BRITE-PL 05 Sep 10:18:33 10:21:31 14° 298° (WNW) 10:24:15 437.365/2234.400
CINEMA 3 05 Sep 10:18:50 10:23:44 58° 286° (WNW) 10:28:26 145.822/145.860
DUCHIFAT 1 05 Sep 10:18:57 10:21:37 17° 66° (ENE) 10:24:26 145.980
Cosmos 2504 05 Sep 10:19:43 10:28:11 74° 80° (E) 10:36:01 435.465 / 435.565
GOMX 1 05 Sep 10:21:21 10:25:17 20° 295° (WNW) 10:29:02 467.674
POLYITAN 1 05 Sep 10:22:09 10:25:11 20° 67° (ENE) 10:28:21 437.675
POPSAT HIP 1 05 Sep 10:22:44 10:25:44 19° 67° (ENE) 10:28:51 437.405
ISS 05 Sep 10:24:32 10:26:04 13° 355° (N) 10:27:35 145.825
HO-68 05 Sep 10:31:41 10:38:34 49° 293° (WNW) 10:45:22 435.675
CUTE 1.7 + AOD 2 05 Sep 10:32:54 10:36:15 23° 291° (WNW) 10:39:30 437.475
TIGRISAT 05 Sep 10:35:58 10:40:38 75° 75° (ENE) 10:45:22 435.000
NANOSAT C BR1 05 Sep 10:37:22 10:40:54 27° 69° (ENE) 10:44:33 145.865
QB50P2 05 Sep 10:40:14 10:43:57 30° 70° (ENE) 10:47:44 145.880/145.840
CANX-2 05 Sep 10:48:32 10:50:57 15° 294° (WNW) 10:53:11 2200.000
ZACube-1 05 Sep 10:50:33 10:55:02 84° 102° (ESE) 10:59:22 437.345
QB50P1 05 Sep 10:52:44 10:56:42 40° 72° (ENE) 11:00:44 145.935-145.965
FUNcube-1 05 Sep 10:53:35 10:58:04 87° 108° (ESE) 11:02:23 145.935
SO-50 05 Sep 10:54:01 10:55:14 11° 253° (WSW) 10:56:09 436.795
HUMSAT D 05 Sep 10:54:11 10:58:01 33° 96° (E) 11:01:47 437.325/437.525
ANTELSAT 05 Sep 10:55:15 10:59:56 67° 260° (W) 11:04:39 437.575/2403.000
Cosmos 2491 05 Sep 10:55:33 11:02:13 23° 297° (WNW) 11:08:34 435.465 / 435.565
SEEDS 05 Sep 11:00:54 11:03:19 15° 294° (WNW) 11:05:33 437.485
AUBIESAT-1 05 Sep 11:04:13 11:08:54 59° 255° (WSW) 11:13:26 437.475
DELFI C3 05 Sep 11:06:47 11:10:43 59° 285° (WNW) 11:14:37 145.870
VELOX 1 05 Sep 11:07:06 11:09:50 16° 91° (E) 11:12:45 145.980
UWE-3 05 Sep 11:08:59 11:13:22 46° 287° (WNW) 11:17:34 435.000/436.395/437.385
50 SAT 05 Sep 11:10:22 11:13:08 19° 93° (E) 11:15:57 437.505
CUBEBUG 2 05 Sep 11:12:50 11:17:03 34° 290° (WNW) 11:21:04 437.445
COMPASS 1 05 Sep 11:14:38 11:16:43 13° 294° (WNW) 11:18:35 437.405
M-CUBED/EXP-1 PRIME 05 Sep 11:14:47 11:19:17 40° 257° (WSW) 11:23:41 437.505
DANDE 05 Sep 11:15:44 11:23:47 84° 262° (W) 11:32:20 436.750
AAUSAT CUBESAT 2 05 Sep 11:20:16 11:22:23 13° 294° (WNW) 11:24:20 437.432
DX 1 05 Sep 11:32:57 11:37:12 48° 99° (E) 11:41:28 434.975-435.025
Oscar 11 05 Sep 11:33:10 11:36:34 22° 292° (WNW) 11:39:52 145.826/435.025
UKube-1 05 Sep 11:37:30 11:41:44 48° 100° (E) 11:45:56 .
BUGSAT 1 05 Sep 11:38:03 11:42:07 78° 77° (ENE) 11:46:17 437.445
UNISAT 6 05 Sep 11:47:40 11:51:11 20° 268° (W) 11:54:35 437.425
PCSat 05 Sep 11:49:50 11:53:34 18° 254° (WSW) 11:57:06 145.827
DUCHIFAT 1 05 Sep 11:53:03 11:57:06 43° 262° (W) 12:01:11 145.980
CUSAT 1 05 Sep 11:54:28 12:01:42 36° 271° (W) 12:08:45 437.405
Oscar 19 05 Sep 11:55:25 11:56:03 10° 59° (ENE) 11:56:59 437.125/150
POLYITAN 1 05 Sep 11:56:52 12:00:51 37° 263° (W) 12:04:50 437.675
POPSAT HIP 1 05 Sep 11:57:23 12:01:21 37° 263° (W) 12:05:21 437.405
CUBEBUG 1 05 Sep 12:00:23 12:04:32 38° 97° (E) 12:08:42 437.445
ISS 05 Sep 12:01:18 12:03:28 16° 15° (NNE) 12:05:40 145.825
NANOSAT C BR1 05 Sep 12:13:07 12:16:42 25° 266° (W) 12:20:14 145.865
Cosmos 2504 05 Sep 12:13:27 12:19:31 22° 279° (W) 12:24:59 435.465 / 435.565
AISAT 05 Sep 12:15:30 12:20:01 86° 283° (WNW) 12:24:30 437.250
QB50P2 05 Sep 12:16:27 12:19:53 23° 267° (W) 12:23:14 145.880/145.840
TIGRISAT 05 Sep 12:16:36 12:18:00 11° 273° (W) 12:19:05 435.000
ESTCUBE 1 05 Sep 12:21:05 12:25:36 81° 102° (ESE) 12:30:07 437.505/2401.250
TISAT 1 05 Sep 12:22:28 12:23:13 11° 88° (E) 12:24:16 437.305
QB50P1 05 Sep 12:29:54 12:32:47 17° 269° (W) 12:35:31 145.935-145.965
HUMSAT D 05 Sep 12:30:23 12:33:32 20° 292° (WNW) 12:36:34 437.325/437.525
VELOX 1 05 Sep 12:42:22 12:46:40 46° 287° (WNW) 12:50:56 145.980
50 SAT 05 Sep 12:44:20 12:47:42 28° 289° (WNW) 12:50:58 437.505
GONETS M04 05 Sep 12:55:21 13:03:20 38° 71° (ENE) 13:11:27
DANDE 05 Sep 13:00:52 13:06:11 18° 276° (W) 13:11:11 436.750
ITAMSAT 1 05 Sep 13:04:19 13:06:05 12° 60° (ENE) 13:08:07 435.822/435.867
DX 1 05 Sep 13:10:19 13:13:06 16° 295° (WNW) 13:15:44 434.975-435.025
SPROUT 05 Sep 13:11:41 13:16:02 74° 102° (ESE) 13:20:21 437.525
Gurwin Techsat 1B 05 Sep 13:14:13 13:17:45 19° 64° (ENE) 13:21:28 435.225
UKube-1 05 Sep 13:14:47 13:17:29 16° 295° (WNW) 13:20:02 .
RS-15 05 Sep 13:23:29 13:23:57 10° 96° (E) 13:25:41 29.354- 29.394
Oscar 19 05 Sep 13:29:28 13:34:38 79° 76° (ENE) 13:39:52 437.125/150
ISS 05 Sep 13:37:09 13:40:23 65° 35° (NE) 13:43:37 145.825
CUBEBUG 1 05 Sep 13:37:22 13:40:39 20° 293° (WNW) 13:43:48 437.445
JAS-2 05 Sep 13:53:11 13:59:42 31° 64° (ENE) 14:06:21 435.910
TISAT 1 05 Sep 13:55:14 13:59:29 65° 285° (WNW) 14:03:42 437.305
BEESAT 05 Sep 13:56:15 13:59:43 20° 92° (E) 14:03:20 436.000
BEESAT 3 05 Sep 13:59:44 14:03:46 75° 121° (ESE) 14:07:51 437.485
ESTCUBE 1 05 Sep 14:00:45 14:01:53 11° 298° (WNW) 14:02:46 437.505/2401.250
AO-7 05 Sep 14:07:18 14:12:55 21° 53° (NE) 14:18:50 29.400- 29.500
